EUTELSAT 117 WEST B

Last updated on Sat Aug 15 2026 00:03:00 GMT+0000 (Coordinated Universal Time)

1 41589U 16038B 26226.54474264 -.00000027 00000+0 00000+0 0 9997 2 41589 0.0132 250.8450 0000240 183.5068 327.7246 1.00272179 37242
UTC large
Height (km)
Speed (km/s)
/
Latitude / Longitude
Inclination (degrees)
Orbital Period (minutes)
Azimuth
Elevation
Range (km)
Doppler Factor

Next 0 passes for location: London (51.5072 / 0.1276)

No passes found over London.
EUTELSAT 117 WEST B